Showing default

KANOPUS-V 4, 43181

Orbit data source: Space-Track

KANOPUS-V 4, 43181 is a payload satellite owned by VNIIEM (CIS) in SSO that was launched on Thu, 01 Feb 2018 UTC via a SOYUZ-2-1A launch vehicle from the Vostochny Cosmodrome (VOSTO). Payload-class satellites include a variety of spacecraft equipped with specific instruments for various scientific and technological missions. These include communications satellites like Starlink; space stations such as the ISS; scientific satellites like the Hubble; Earth observation satellites from companies like Planet Labs, Umbra, and HawkEye 360; GPS; miniature CubeSats for education and research; and military/defense satellites.

Loading next visibility...
Identifier
43181, 2018-014B
Orbit
SSO
Country
Flag of CISCIS
Related business
Manufacturer
VNIIEM
Mission
Operational Civil Imaging
Bus & Motor
KANOPUS, Unknown motor
Mass
490 kg wet, 490 kg dry
Launch date (UTC)
2018-02-01 (9 years ago)
Launch vehicle
SOYUZ-2-1A
Launch site
Vostochny Cosmodrome (VOSTO)
Object type
Payload
Rocket body
Debris
Shape & HBR
Box + 2 Pan, 3.0 m
Radar Cross Section
1.665 m², Large (>1 m²)

Expand to show TLE details & history
Last TLE update: 3 hours ago

TLE from 3 hours ago
0 KANOPUS-V 4
1 43181U 18014B   26254.85407230  .00001321  00000-0  60260-4 0  9994
2 43181  97.3488 158.7102 0001867  85.6255 274.5194 15.22335350477925
Epoch: 2026-09-11T20:29Z
TLE epoch observation values (Epoch: 2026-09-11T20:29:51.846Z)
Latitude
-0.00012°
Longitude
-139.62727°
Altitude
501.793 km
Speed
7.614 km/s
True Right ascension
10h 34m 50s
True Declination
0° 00' 00"
Sunlit
Object was in daylight at epoch
Visualization orbit readout
Latitude
Unknown
Longitude
Unknown
Altitude
Unknown
Speed
Unknown
Apparent Right ascension
Unknown
Apparent Declination
Unknown
Sunlit
N/A
Visualization observer readout
Local Sidereal Time
15:46:55
Azimuth
Unknown
Elevation
Unknown
Doppler factor
Unknown
Orbital elements
Apogee altitude
497.042 km
Perigee altitude
494.475 km
Semi-major axis
6,873.896 km
Eccentricity
0.00019
Inclination
97.3488°
RAAN
158.7102°
Arg. of periapsis
85.6255°
True anomaly
274.49807°
Mean anomaly
274.5194°
Eccentric anomaly
274.50874°
Mean motion
3.80837 °/min
Orbital period
94.53 mins
BSTAR
0.00006026
Loading maneuver chart data...
Computing Atmospheric mass density...
Loading historical data...
Loading historical data...
Loading historical data...
Loading historical data...
Loading historical data...
Loading historical data...
Loading historical data...

Documentation

Showing up to 5 results
|